Torna al catalogo

STARLINK-34843

AttivoComunicazioniVLEO
NORAD 65201·PAYLOAD·🇺🇸 United States

Lanciato Aug 14, 2025 da Cape Canaveral Space Force Station

Loading…

Prossimi Passaggi (prossime 24 ore)

TLE

AggiornatoSource: CelesTrak SupGP

Epoca: Sep 15, 2026, 03:13 UTC

1 65201C 25176D   26258.13451389  .00079631  00000+0  23527-2 0  2586
2 65201  53.1593 348.6598 0001239  91.0770 258.8947 15.34350788    12

Traccia STARLINK-34843 in tempo reale con AllMySat

Download on the App Store